Location: Rounton
(54.4000°N, 1.3500°W)
Time: 14:22:41
(UTC+01:00)

S-56A Canister/Altair - Pass Details

Date: 11 September 2024
Orbit: 636 x 2487 km, 38.9° (Epoch: 02 October)

Event Time Altitude Azimuth Distance (km) Brightness Sun altitude
Rises 03:21:19 0° 268° (W) 5,073 - -24.5°
Reaches altitude 10° 03:26:27 10° 248° (WSW) 4,429 - -24.0°
Maximum altitude 03:32:30 15° 218° (SW) 4,329 - -23.4°
Drops below altitude 10° 03:39:15 10° 189° (S) 5,010 - -22.7°
Exits shadow 03:43:21 - 177° (S) 5,678 11.6 -22.3°
Sets 03:45:52 0° 171° (S) 6,139 11.8 -22.1°
